Location: Béaulencourt
(50.0796°N, 2.8795°E)
Time: 23:58:14
(UTC+00:00)

Cosmos 1461 - Pass Details

Date: 20 January 2026
Orbit: 426 x 502 km, 65.0° (Epoch: 17 February)

Event Time Altitude Azimuth Distance (km) Brightness Sun altitude
Exits shadow 06:38:57 - 238° (WSW) 2,589 5.9 -9.2°
Reaches altitude 10° 06:41:09 10° 246° (WSW) 1,726 4.9 -8.9°
Maximum altitude 06:44:50 41° 318° (NW) 754 3.1 -8.3°
Drops below altitude 10° 06:48:33 10° 30° (NNE) 1,740 5.5 -7.8°
Sets 06:50:49 0° 37° (NE) 2,626 6.5 -7.5°
